EHI
0 0 0 0 0 0 0 0 0 1 1 2 4 5 3 1 1 1 4 6 7 7 6 7 8 10 12 15 18 17 14 12 11 7 5 3 1 0 0 1 2 1 0 0
0 0 0 0 0 0 0 0 0 0 0 1 3 4 3 2 1 2 3 5 7 8 9 9 10 11 13 15 16 16 14 14 12 8 6 4 2 0 0 1 2 1 0 0
0 0 0 0 0 0 0 0 0 0 1 2 3 3 3 3 3 3 3 4 6 9 12 12 12 13 13 12 13 14 14 13 11 8 6 5 3 1 0 1 2 1 0 0
0 0 0 0 0 0 0 0 0 0 2 3 3 2 2 3 4 5 4 4 6 9 12 13 12 13 13 11 11 12 13 11 9 6 5 4 3 2 1 1 1 1 0 0
0 0 0 0 0 0 0 0 0 0 2 3 3 1 1 3 4 4 3 3 5 8 11 11 11 12 13 12 10 11 11 10 7 5 4 3 3 3 3 2 2 1 0 0
0 0 0 0 0 0 0 0 0 0 1 2 3 2 2 2 2 2 2 2 5 8 10 10 11 12 12 12 11 9 8 7 5 4 3 3 3 3 3 3 3 2 1 0
0 0 0 0 0 0 0 0 0 0 1 1 2 2 2 3 2 1 2 4 6 8 9 9 10 11 11 11 9 7 5 4 3 2 3 3 3 3 3 3 3 2 1 1
0 0 0 0 0 0 0 0 0 1 1 1 1 2 3 3 3 3 3 4 7 8 9 8 8 8 8 8 6 5 4 3 2 1 1 2 2 2 2 2 2 1 1 0
0 0 0 0 0 0 0 0 1 2 1 1 2 4 4 4 5 5 4 4 5 7 7 6 5 4 4 4 4 4 4 3 1 0 0 1 1 1 1 1 1 0 0 0
0 0 0 0 0 0 1 1 2 3 2 1 3 4 4 4 5 4 3 3 4 6 7 6 4 2 1 1 2 2 2 2 1 0 0 0 0 0 0 0 0 0 0 0
0 0 0 0 0 1 2 2 2 2 2 1 2 3 3 3 4 4 4 4 6 7 7 7 4 1 0 0 1 1 1 1 0 0 0 0 0 0 0 0 0 0 0 0
0 0 1 1 0 1 2 2 1 1 1 1 2 3 2 2 3 4 4 5 6 7 7 5 3 1 0 0 0 0 0 0 0 0 0 0 0 0 0 0 0 0 0 0
0 1 2 1 0 0 1 1 0 0 1 1 2 2 1 1 3 3 4 5 5 5 4 2 1 0 0 0 0 0 0 0 0 0 0 0 0 0 0 0 0 0 0 0
1 1 2 1 0 0 0 0 1 1 2 2 2 1 1 2 3 3 4 4 4 2 1 0 0 0 0 0 0 0 0 0 0 0 0 0 0 0 0 0 0 0 0 0
1 1 1 0 0 0 0 0 1 2 2 1 1 0 1 2 3 3 3 4 3 1 0 0 0 0 0 0 0 0 0 0 0 0 0 0 0 0 0 0 0 0 0 0
2 1 0 0 0 0 0 0 1 1 1 0 1 1 1 2 3 3 3 2 2 1 0 0 0 0 0 0 0 0 0 0 0 0 0 0 0 0 0 0 0 0 0 0
2 1 0 0 0 0 0 0 0 0 0 1 2 2 2 2 2 2 1 1 1 0 0 0 0 0 0 0 0 0 0 0 0 0 0 0 0 0 0 0 0 0 0 0
1 1 1 1 1 0 0 0 0 0 0 1 2 2 2 1 1 1 0 0 0 0 0 0 0 0 0 0 0 0 0 0 0 0 0 0 0 0 0 0 0 0 0 0
0 1 2 2 2 1 0 0 0 0 0 1 1 1 1 0 0 0 0 0 0 0 0 0 0 0 0 0 0 0 0 0 0 0 0 0 0 0 0 0 0 0 0 0
0 1 2 2 2 1 1 0 0 0 0 0 0 0 0 0 0 0 0 0 0 0 0 0 0 0 0 0 0 0 0 0 0 0 0 0 0 0 0 0 0 0 0 0
0 0 1 1 1 1 1 1 0 0 0 0 0 0 0 0 0 0 0 0 0 0 0 0 0 0 0 0 0 0 0 0 0 0 0 0 0 0 0 0 0 0 0 0
0 0 0 0 0 0 0 0 0 0 0 0 0 0 0 0 0 0 0 0 0 0 0 1 0 0 0 0 0 0 0 0 0 0 0 0 0 0 0 0 0 0 0 0
0 0 0 0 0 0 0 0 0 0 0 0 0 0 0 0 0 0 0 0 0 0 0 0 0 0 0 0 0 0 0 0 0 0 0 0 0 0 0 0 0 0 0 0
0 0 0 0 0 0 0 0 0 0 0 0 0 0 0 0 0 0 0 0 0 0 0 0 0 0 0 0 0 0 0 0 0 0 0 0 0 0 0 0 0 0 0 0
0 0 0 0 0 0 0 0 0 0 0 0 0 0 0 0 0 0 0 0 0 0 0 0 0 0 0 0 0 0 0 0 0 0 0 0 0 0 0 0 0 0 0 0
0 0 0 0 0 0 0 0 0 0 0 0 0 0 0 0 0 0 0 0 0 0 0 0 0 0 0 0 0 0 0 0 0 0 0 0 0 0 0 0 0 0 0 0
0 0 0 0 0 0 0 0 0 0 0 0 0 0 0 0 0 0 0 0 0 0 0 0 0 0 0 0 0 0 0 0 0 0 0 0 0 0 0 0 0 0 0 0
Wind_Speed
3 4 2 4 5 4 1 3 5 4 4 4 4 2 1 1 1 2 1 2 2 1 2 3 3 3 3 3 3 4 5 5 5 4 3 3 3 3 3 3 3 3 3 3
3 2 2 5 5 3 2 1 1 1 2 3 2 0 1 1 1 2 1 1 1 1 2 2 2 3 3 3 3 4 4 5 4 3 3 3 3 3 3 3 3 3 3 3
3 4 3 4 3 1 0 1 2 2 4 1 1 0 1 1 1 1 1 1 2 2 2 2 2 3 4 4 4 4 4 3 3 3 3 3 3 2 3 3 3 3 3 3
1 1 4 4 0 1 1 1 1 1 1 2 3 2 2 2 2 1 1 1 1 1 1 2 2 2 3 3 4 5 4 3 3 3 3 3 3 3 3 3 3 3 3 4
2 2 4 3 2 2 1 3 1 1 1 2 1 2 2 1 1 2 2 2 2 1 1 1 1 2 3 3 3 4 3 3 4 4 3 3 3 3 3 2 3 3 3 3
2 3 4 3 5 4 2 3 3 2 1 1 1 1 4 2 2 1 1 1 1 0 1 1 1 2 3 3 3 3 3 3 3 4 4 4 4 3 2 3 3 3 3 3
2 3 3 4 5 4 2 4 4 3 2 2 2 4 4 3 1 1 0 1 1 1 1 1 1 2 3 3 2 2 2 2 2 2 3 3 3 2 2 2 2 2 2 2
1 2 5 4 3 1 4 4 5 5 4 3 2 1 1 1 1 1 1 1 1 2 1 1 1 2 2 1 1 1 1 1 1 1 2 2 2 2 2 2 2 2 2 2
3 4 4 2 1 3 3 4 5 5 5 3 2 1 1 2 2 1 2 1 1 2 1 2 1 1 1 1 0 1 1 1 1 0 1 1 2 2 2 2 2 1 1 2
1 2 3 3 2 3 3 4 5 5 3 2 3 2 1 2 2 2 2 2 1 1 2 1 2 1 0 1 1 2 1 1 1 1 1 0 0 1 2 2 2 2 2 2
2 3 3 3 3 4 5 4 4 3 1 2 3 2 2 2 3 3 2 1 2 2 1 0 1 1 1 1 1 2 1 0 0 0 1 1 0 1 2 3 4 4 4 3
4 4 2 5 5 4 4 4 3 2 1 1 1 2 1 2 2 3 3 2 2 2 1 0 1 1 1 1 1 2 1 0 0 0 0 1 1 1 2 3 4 5 6 5
4 3 3 5 4 3 3 4 3 1 1 1 0 1 2 2 2 2 3 3 3 2 1 0 1 1 2 1 1 2 1 0 0 0 0 1 1 1 1 4 3 3 5 5
2 1 3 3 3 3 3 3 1 2 1 0 1 1 2 2 2 2 2 2 2 2 1 1 1 1 1 1 1 1 0 0 0 1 1 1 1 1 2 2 2 3 3 4
3 2 2 2 2 3 3 2 3 3 2 2 2 2 3 3 3 3 2 2 2 2 1 1 1 1 1 1 1 0 0 0 1 1 1 1 1 0 1 1 1 1 2 2
3 2 1 1 2 3 3 3 2 2 2 1 1 1 2 3 3 2 2 3 3 2 1 1 0 1 1 1 1 1 1 1 1 1 1 1 1 0 0 1 1 1 1 2
1 2 1 1 2 2 2 2 1 1 1 1 0 1 2 2 2 2 1 1 2 2 2 1 1 1 0 1 1 1 2 1 2 1 1 1 0 0 0 1 1 1 2 2
2 2 2 2 1 1 2 2 1 1 1 1 1 2 2 2 2 1 1 1 2 1 0 0 1 1 0 0 0 0 1 1 1 1 1 1 1 1 0 1 1 1 1 1
2 2 2 0 1 1 0 0 1 1 1 1 2 2 1 1 2 2 2 2 2 1 2 1 1 1 0 1 1 1 1 1 1 1 1 1 1 1 0 1 1 1 1 1
3 2 2 2 2 2 1 0 0 1 1 1 2 2 2 2 1 1 2 1 1 2 2 0 0 0 1 1 2 1 1 1 1 1 1 1 1 1 1 1 1 1 0 0
2 2 2 2 2 2 1 1 1 1 1 2 2 2 2 1 2 2 2 1 2 1 1 1 1 0 1 1 1 1 1 1 1 1 1 1 0 0 0 0 0 0 1 1
3 2 2 2 2 2 2 2 2 2 2 3 3 3 3 3 2 2 1 0 1 1 0 0 0 1 1 1 1 1 1 1 1 1 0 0 0 0 0 0 0 0 0 1
3 3 3 2 2 1 2 2 2 2 3 3 3 3 2 1 1 1 1 2 1 1 1 0 1 1 1 1 1 1 1 1 1 1 0 0 0 0 0 0 0 0 1 1
3 3 3 3 4 4 3 2 2 3 3 3 3 2 2 2 2 1 1 1 1 1 1 1 1 1 1 1 1 1 1 1 1 0 0 0 0 0 0 0 0 0 0 1
3 3 3 4 4 3 2 2 3 3 3 2 3 2 2 1 1 1 1 1 1 1 1 2 2 2 2 1 1 1 1 1 1 1 1 1 0 1 1 1 0 0 0 1
3 2 2 2 1 1 2 2 1 1 1 1 2 2 1 1 1 2 2 2 2 2 1 1 2 2 2 1 1 1 1 2 2 2 2 2 1 1 1 1 1 1 0 1
3 2 2 2 2 2 2 1 1 1 1 1 1 1 1 1 2 2 2 2 2 2 2 2 2 2 2 2 2 2 2 2 2 2 2 2 2 2 2 2 2 2 2 2
Wind_Direction
247 276 307 308 318 330 304 207 197 215 209 239 246 250 299 359 63 80 71 108 107 142 161 154 155 170 176 182 173 173 166 172 184 187 185 182 188 203 206 203 203 201 200 208
299 303 338 325 325 314 307 297 196 175 256 260 245 172 36 11 137 123 125 146 134 146 147 148 159 173 177 183 169 163 172 181 180 177 183 190 197 204 210 214 213 203 204 205
270 298 343 308 302 296 270 316 189 238 264 280 1 359 224 230 177 181 197 171 173 191 182 183 195 196 187 186 171 161 171 176 177 179 186 198 198 193 206 211 205 211 215 210
224 0 242 240 230 134 137 356 170 189 228 209 217 236 225 194 175 214 260 249 213 208 230 233 213 199 188 169 162 165 173 181 185 182 194 202 195 201 212 204 203 213 219 221
151 213 256 289 314 293 234 282 329 51 353 332 345 13 329 282 150 201 229 241 245 217 204 228 172 154 142 140 156 164 178 190 194 190 192 195 202 213 217 204 211 216 219 218
155 196 228 266 311 316 96 278 317 347 289 282 48 293 267 281 287 267 245 196 204 345 79 109 136 127 129 142 155 177 190 197 197 190 191 202 210 213 209 204 214 217 231 231
194 221 252 297 323 10 141 252 317 316 278 238 223 226 241 251 263 242 188 163 140 113 109 121 116 110 125 130 167 195 186 188 195 198 204 204 203 209 202 208 212 220 234 249
175 210 253 324 19 102 235 278 299 299 287 272 270 286 218 200 210 199 119 89 109 106 61 9 103 116 126 168 214 178 155 178 194 212 229 212 203 213 209 201 203 215 226 264
193 218 254 306 236 238 240 281 287 287 277 240 233 237 184 199 196 207 185 148 120 117 79 5 18 113 138 238 175 126 118 149 189 180 261 226 199 198 198 183 175 202 214 239
270 273 294 320 319 305 298 287 287 287 264 189 191 188 156 175 194 211 205 162 140 119 93 21 337 15 26 286 140 119 137 192 211 155 200 305 218 191 185 189 187 203 212 229
261 280 315 325 327 317 317 321 324 331 325 164 154 158 163 194 196 199 188 175 141 144 141 199 305 346 344 1 99 112 108 72 308 202 179 172 173 244 215 221 203 199 212 215
247 258 253 281 300 316 326 318 323 350 6 312 160 171 172 180 194 177 164 145 127 128 140 190 6 350 349 347 110 114 102 34 311 275 236 188 181 332 318 258 239 226 223 221
235 262 265 277 310 336 333 315 320 360 173 246 275 190 148 155 181 159 139 143 153 152 162 91 23 357 352 6 99 114 130 210 279 272 260 250 206 185 299 324 307 271 251 246
280 308 310 320 316 319 322 313 5 58 53 72 133 128 121 129 139 133 138 159 146 128 119 94 66 352 334 18 66 88 83 298 295 256 246 246 233 213 206 219 282 309 297 265
302 280 257 290 318 329 339 3 48 50 53 38 74 107 120 136 143 149 163 151 128 120 132 115 54 314 324 11 51 48 70 354 311 307 294 249 231 222 217 223 240 272 309 318
300 315 333 5 350 338 2 20 26 14 34 36 94 129 146 149 144 144 139 141 137 157 168 144 264 280 293 44 36 355 335 311 332 330 329 335 350 330 259 251 258 258 259 263
4 329 315 341 348 339 344 348 350 341 6 30 112 148 125 108 105 112 116 131 159 177 179 173 251 279 238 94 58 3 340 324 331 344 314 280 270 257 242 214 231 245 257 257
273 253 240 210 211 274 313 343 351 353 348 4 54 88 108 122 135 151 159 123 93 69 47 259 298 312 22 73 40 334 323 307 300 274 269 260 249 238 223 236 247 252 282 294
329 311 304 248 163 171 175 322 321 335 347 61 89 89 92 123 138 144 130 109 105 71 302 315 358 59 315 294 330 316 320 316 304 294 281 265 257 241 233 254 273 271 266 290
340 330 5 35 40 45 47 10 16 18 6 107 105 87 68 68 94 105 102 92 214 219 238 298 66 37 301 312 341 335 322 315 303 298 290 259 257 270 263 255 249 269 298 307
3 360 21 28 22 14 9 53 74 46 16 77 98 99 93 70 65 74 81 33 315 306 125 91 95 298 310 340 355 357 337 325 310 298 281 277 285 299 297 328 351 13 1 346
11 13 11 26 49 34 18 53 69 67 60 78 90 89 77 59 48 48 51 213 287 324 60 137 199 261 318 354 18 355 337 337 322 320 318 306 166 33 280 340 336 329 342 324
12 9 10 19 53 60 41 51 53 68 76 91 94 90 87 80 99 98 347 316 323 357 15 293 306 302 317 356 360 348 348 347 335 333 9 64 108 122 146 174 322 356 357 346
25 26 24 25 41 56 55 48 42 53 65 68 69 81 85 69 27 2 254 297 347 14 21 344 7 346 333 5 12 11 12 9 5 349 54 62 57 54 78 116 25 1 39 8
29 34 40 47 48 35 37 59 50 48 51 43 36 41 58 96 108 335 0 15 26 19 357 6 24 8 8 15 26 30 26 25 25 28 54 61 36 46 48 47 28 2 16 10
19 22 19 25 40 25 20 52 66 38 40 36 11 7 28 34 34 28 18 11 22 16 5 349 5 19 24 30 43 44 41 36 42 50 58 63 61 54 45 28 12 8 23 51
8 13 23 23 20 20 16 28 63 43 38 72 48 15 41 42 36 19 14 14 10 13 11 8 19 39 38 37 44 48 45 41 42 47 54 54 53 55 52 45 43 41 51 60